[[{"header":{"parameterUnit":"m.s-1","parameterCategory":2,"la1":30.2992,"la2":30.254,"lo1":-89.0895,"lo2":-89.0443,"dy":0.0025,"dx":0.0025,"nx":19,"ny":19,"refTime":"2026-04-07T03:00:00:Z","depth":"0","parameterNumber":2,"parameterNumberName":"U-component_of_CURRENTS"},"data":[0,0,0,0.1419,0.1419,0.1399,0.1399,0.1361,0.136,0,0,0,0,0,0,0,0,0,0,0,0.1424,0.1424,0.1419,0.1419,0.1399,0.1399,0.1361,0.136,0,0,0,0,0,0,0,0,0,0,0,0.1424,0.1424,0.1424,0.1419,0.1399,0.1399,0.1361,0.1378,0,0,0,0,0,0,0,0,0,0,0.1399,0.1414,0.1424,0.1424,0.1419,0.1399,0.1399,0.1379,0.1377,0.1367,0,0.1365,0,0.1363,0.1358,0.1358,0,0,0,0.1416,0.1416,0.1404,0.1424,0.1418,0.1399,0.1407,0.1378,0.1376,0.1364,0.1364,0.1363,0.1363,0.1358,0.1357,0.131,0.131,0,0,0.1417,0.1426,0.1405,0.1402,0.1414,0.1408,0.1406,0.1377,0.1378,0.1364,0.1362,0.1362,0.1357,0.1357,0.131,0.131,0,0,0,0.1422,0.1427,0.1416,0.1404,0.1402,0.1407,0.1406,0.138,0.1374,0.1362,0.1362,0.1357,0.1357,0.1311,0.131,0.1325,0,0,0,0.1422,0.143,0.1417,0.1423,0.1403,0.1394,0.1409,0.1376,0.1373,0.1362,0.1357,0.1356,0.1311,0.131,0.1325,0.133,0,0,0,0.1425,0.1431,0.1427,0.1423,0.1415,0.1395,0.1388,0.1375,0.1373,0.1358,0.1356,0.1311,0.131,0.1325,0.133,0.1328,0,0,0,0.1437,0.1422,0.1427,0.141,0.1416,0.1382,0.1388,0.1366,0.1352,0.1357,0.1311,0.131,0.1325,0.133,0.1328,0.1206,0.1196,0,0,0.142,0.142,0.1408,0.1412,0.1374,0.1385,0.1359,0.1347,0.134,0.132,0.1319,0.1325,0.133,0.1328,0.1174,0.1165,0,0,0,0.1403,0.1388,0.1378,0.1362,0.1348,0.1342,0.1333,0.1338,0.1328,0.133,0.1309,0.1311,0.131,0.1236,0.1229,0.0885,0.1308,0.1308,0.1308,0.1368,0.1361,0.133,0.1315,0.1308,0.1309,0.1312,0.1315,0.131,0.1311,0.1312,0.1305,0.1225,0.1218,0.0865,0.13,0.13,0.13,0.13,0.1319,0.1292,0.1295,0.1264,0.127,0.1259,0.1287,0.1301,0.1313,0.1311,0.131,0.1241,0.1211,0.0837,0.1301,0.13,0.13,0.13,0.13,0.1278,0.1265,0.1253,0.1223,0.1215,0.1232,0.1238,0.1278,0.1313,0.1323,0.123,0.1228,0.0909,0.1318,0.1318,0.1318,0.1318,0.1318,0.1318,0.1242,0.1228,0.1196,0.1176,0.116,0.1164,0.1209,0.123,0.1233,0.1228,0.1227,0.0838,0.131,0.1321,0.1318,0.1318,0.1318,0.1318,0.1318,0.1188,0.1187,0.1133,0.111,0.107,0.0994,0.1084,0.1063,0.111,0.1084,0.0678,0.1172,0.1154,0.1158,0.1164,0.1121,0.1121,0.1121,0.1121,0.1155,0.115,0.1065,0.1007,0.0957,0.0912,0.0754,0.0697,0.055,0.037,0.0402,0.031,0.0333,0.0262,0.0286,0.0272,0.0004,0.0002,0.0,0.1124,0.1099,0.102,0.0949,0.0885,0.0775,0.0499,0.0119,-0.0114,-0.0077,-0.0059,-0.0011,-0.0175,-0.011,-0.0236,-0.0175,-0.0199,0,0]},{"header":{"parameterUnit":"m.s-1","parameterCategory":2,"la1":30.2992,"la2":30.254,"lo1":-89.0895,"lo2":-89.0443,"dy":0.0025,"dx":0.0025,"nx":19,"ny":19,"refTime":"2026-04-07T03:00:00:Z","depth":"0","parameterNumber":3,"parameterNumberName":"V-component_of_CURRENTS"},"data":[0,0,0,-0.0045,-0.0045,-0.0083,-0.0083,-0.0109,-0.0109,0,0,0,0,0,0,0,0,0,0,0,-0.003,-0.003,-0.0045,-0.0045,-0.0083,-0.0083,-0.0109,-0.0109,0,0,0,0,0,0,0,0,0,0,0,-0.003,-0.003,-0.003,-0.0045,-0.0083,-0.0083,-0.0109,-0.0088,0,0,0,0,0,0,0,0,0,0,-0.0056,-0.0044,-0.003,-0.003,-0.0046,-0.0083,-0.0083,-0.0088,-0.0089,-0.0082,0,-0.008,0,-0.009,-0.0109,-0.0109,0,0,0,-0.0055,-0.0042,-0.0048,-0.003,-0.0046,-0.0083,-0.0069,-0.0089,-0.0091,-0.0084,-0.008,-0.0082,-0.0091,-0.0109,-0.0109,-0.0068,-0.0067,0,0,-0.0053,-0.0043,-0.0046,-0.0049,-0.0045,-0.0067,-0.007,-0.0091,-0.009,-0.0081,-0.0082,-0.0091,-0.0109,-0.0109,-0.0068,-0.0068,0,0,0,-0.0041,-0.0041,-0.0048,-0.0048,-0.0054,-0.0068,-0.0071,-0.0089,-0.009,-0.0083,-0.0092,-0.0109,-0.0109,-0.0069,-0.0068,-0.0024,0,0,0,-0.004,-0.0033,-0.0046,-0.0042,-0.0053,-0.0075,-0.0069,-0.0088,-0.0091,-0.0091,-0.0109,-0.0109,-0.0069,-0.0068,-0.0026,0.0005,0,0,0,-0.003,-0.0033,-0.0033,-0.0041,-0.0052,-0.0075,-0.0078,-0.009,-0.0096,-0.0109,-0.0109,-0.007,-0.0068,-0.0028,0.0001,0.0035,0,0,0,-0.0025,-0.0026,-0.0032,-0.0033,-0.0052,-0.0051,-0.0078,-0.0086,-0.0095,-0.0109,-0.0069,-0.0068,-0.0029,-0.0001,0.0032,0.0084,0.0099,0,0,-0.0026,-0.0026,-0.0026,-0.0032,-0.0023,-0.0047,-0.0026,-0.0052,-0.0073,-0.0064,-0.0063,-0.0026,0.0001,0.0034,0.015,0.0164,0,0,0,-0.0026,-0.0022,-0.002,-0.0016,-0.0017,0.0005,-0.0021,-0.0021,-0.0021,-0.0071,-0.0014,0.0001,0.0021,0.0047,0.0058,0.0036,-0.0063,-0.0063,-0.0063,-0.0005,-0.0007,0.0007,0.0014,0.0024,0.0039,0.0055,0.0055,0.0021,0.0034,0.0045,0.0113,0.0142,0.0151,0.0127,0.0047,0.0047,0.0047,0.0047,0.0014,0.0026,0.0039,0.0049,0.0081,0.0106,0.0133,0.0123,0.0147,0.0105,0.0121,0.0102,0.0165,0.0136,0.0051,0.005,0.005,0.0049,0.0049,0.0038,0.0043,0.0051,0.0081,0.0128,0.0154,0.0224,0.0219,0.0196,0.0215,0.0231,0.023,0.0197,0.0214,0.0214,0.0215,0.0215,0.0215,0.0215,0.0059,0.0067,0.009,0.0118,0.0152,0.0212,0.0273,0.0305,0.032,0.0299,0.0299,0.023,0.0164,0.0149,0.022,0.0219,0.0218,0.0218,0.0218,0.0083,0.0088,0.0119,0.0148,0.0222,0.0279,0.0345,0.0424,0.0449,0.0465,0.0374,0.0342,0.0335,0.0326,0.0316,0.0425,0.0425,0.0425,0.0425,0.0104,0.0107,0.0149,0.0196,0.0266,0.0313,0.0383,0.0446,0.048,0.0471,0.0445,0.0411,0.0403,0.0396,0.0386,0.0375,0.0497,0.0497,0.0497,0.0129,0.0135,0.0166,0.0199,0.0277,0.0336,0.0339,0.031,0.0409,0.0494,0.0406,0.0403,0.0342,0.0332,0.0309,0.0296,0.0273,0,0]}],[{"header":{"parameterUnit":"m.s-1","parameterCategory":2,"la1":30.2992,"la2":30.254,"lo1":-89.0895,"lo2":-89.0443,"dy":0.0025,"dx":0.0025,"nx":19,"ny":19,"refTime":"2026-04-07T03:00:00:Z","depth":"2","parameterNumber":2,"parameterNumberName":"U-component_of_CURRENTS"},"data":[0,0,0,0.1475,0.1475,0.1455,0.1455,0.142,0.1419,0,0,0,0,0,0,0,0,0,0,0,0.148,0.148,0.1475,0.1475,0.1455,0.1455,0.142,0.1419,0,0,0,0,0,0,0,0,0,0,0,0.148,0.148,0.148,0.1475,0.1455,0.1455,0.142,0.1436,0,0,0,0,0,0,0,0,0,0,0.1457,0.1471,0.148,0.148,0.1475,0.1455,0.1455,0.1437,0.1435,0.1427,0,0.1424,0,0.1423,0.1417,0.1417,0,0,0,0.1472,0.1472,0.1461,0.148,0.1475,0.1455,0.1463,0.1436,0.1434,0.1424,0.1424,0.1423,0.1422,0.1417,0.1417,0.1372,0.1371,0,0,0.1473,0.1482,0.1462,0.146,0.147,0.1464,0.1463,0.1435,0.1436,0.1424,0.1422,0.1422,0.1417,0.1416,0.1372,0.1372,0,0,0,0.1478,0.1483,0.1472,0.1461,0.1459,0.1463,0.1462,0.1438,0.1432,0.1421,0.1421,0.1416,0.1416,0.1372,0.1372,0.1385,0,0,0,0.1478,0.1486,0.1473,0.1479,0.146,0.1452,0.1465,0.1434,0.1431,0.1421,0.1416,0.1416,0.1372,0.1372,0.1385,0.1389,0,0,0,0.1481,0.1486,0.1483,0.1479,0.1471,0.1452,0.1445,0.1434,0.1431,0.1417,0.1416,0.1373,0.1372,0.1385,0.1389,0.1388,0,0,0,0.1492,0.1477,0.1483,0.1465,0.1471,0.1439,0.1445,0.1424,0.141,0.1416,0.1372,0.1372,0.1385,0.1389,0.1388,0.1278,0.1268,0,0,0.1474,0.1475,0.1462,0.1467,0.143,0.1441,0.1416,0.1405,0.1399,0.1381,0.138,0.1385,0.1389,0.1388,0.1245,0.1237,0,0,0,0.1457,0.1442,0.1433,0.1417,0.1404,0.1398,0.1391,0.1396,0.1387,0.139,0.137,0.1372,0.1371,0.1304,0.1297,0.1369,0.1369,0.1369,0.1369,0.142,0.1414,0.1383,0.1371,0.1363,0.1366,0.137,0.1374,0.1369,0.137,0.1371,0.1364,0.1291,0.1285,0.1359,0.1359,0.1359,0.1359,0.1359,0.137,0.1344,0.1349,0.1318,0.1325,0.1315,0.1344,0.1359,0.1372,0.137,0.1368,0.1307,0.1278,0.136,0.136,0.136,0.136,0.136,0.136,0.1328,0.1315,0.1305,0.1276,0.1269,0.1287,0.1294,0.1335,0.137,0.138,0.1296,0.1294,0.1379,0.1375,0.1375,0.1375,0.1375,0.1375,0.1375,0.129,0.1278,0.1246,0.1228,0.1213,0.1217,0.1264,0.1285,0.1294,0.1293,0.1292,0.1369,0.1368,0.1379,0.1375,0.1375,0.1375,0.1375,0.1375,0.1235,0.1235,0.1181,0.116,0.1122,0.108,0.1144,0.1128,0.1172,0.115,0.124,0.1243,0.1227,0.123,0.1237,0.1197,0.1197,0.1197,0.1197,0.1201,0.1197,0.1113,0.1057,0.1009,0.1008,0.0926,0.0954,0.1032,0.1067,0.1073,0.1043,0.1052,0.1026,0.1034,0.1037,0.0945,0.0944,0.0944,0.117,0.1145,0.1067,0.0999,0.0937,0.0903,0.079,0.0707,0.0775,0.0939,0.108,0.117,0.114,0.1149,0.1121,0.1129,0.1138,0,0]},{"header":{"parameterUnit":"m.s-1","parameterCategory":2,"la1":30.2992,"la2":30.254,"lo1":-89.0895,"lo2":-89.0443,"dy":0.0025,"dx":0.0025,"nx":19,"ny":19,"refTime":"2026-04-07T03:00:00:Z","depth":"2","parameterNumber":3,"parameterNumberName":"V-component_of_CURRENTS"},"data":[0,0,0,-0.0021,-0.0022,-0.0062,-0.0062,-0.0086,-0.0086,0,0,0,0,0,0,0,0,0,0,0,-0.0004,-0.0004,-0.0021,-0.0022,-0.0062,-0.0062,-0.0086,-0.0086,0,0,0,0,0,0,0,0,0,0,0,-0.0004,-0.0004,-0.0004,-0.0022,-0.0062,-0.0062,-0.0086,-0.0065,0,0,0,0,0,0,0,0,0,0,-0.003,-0.0019,-0.0004,-0.0004,-0.0022,-0.0062,-0.0062,-0.0064,-0.0066,-0.0057,0,-0.0056,0,-0.0068,-0.0086,-0.0086,0,0,0,-0.0031,-0.0017,-0.0023,-0.0004,-0.0022,-0.0061,-0.0046,-0.0066,-0.0068,-0.006,-0.0056,-0.0057,-0.0068,-0.0086,-0.0086,-0.0045,-0.0044,0,0,-0.0029,-0.0019,-0.0021,-0.0024,-0.0022,-0.0045,-0.0047,-0.0067,-0.0067,-0.0056,-0.0058,-0.0068,-0.0086,-0.0086,-0.0045,-0.0045,0,0,0,-0.0016,-0.0017,-0.0023,-0.0023,-0.003,-0.0046,-0.0049,-0.0066,-0.0067,-0.0059,-0.0069,-0.0086,-0.0086,-0.0046,-0.0045,-0.0003,0,0,0,-0.0015,-0.0009,-0.0022,-0.0017,-0.0029,-0.0053,-0.0047,-0.0065,-0.0068,-0.0069,-0.0086,-0.0086,-0.0046,-0.0046,-0.0005,0.0026,0,0,0,-0.0005,-0.0008,-0.0008,-0.0017,-0.003,-0.0053,-0.0056,-0.0067,-0.0074,-0.0086,-0.0086,-0.0047,-0.0046,-0.0007,0.0022,0.0055,0,0,0,0.0,-0.0003,-0.0008,-0.0011,-0.0029,-0.0029,-0.0056,-0.0065,-0.0073,-0.0086,-0.0046,-0.0045,-0.0007,0.002,0.0053,0.0098,0.0113,0,0,-0.0003,-0.0003,-0.0004,-0.0009,-0.0002,-0.0025,-0.0005,-0.003,-0.0051,-0.0041,-0.004,-0.0004,0.0022,0.0054,0.0163,0.0176,0,0,0,-0.0005,-0.0001,0.0001,0.0005,0.0003,0.0025,-0.0001,-0.0,-0.0,-0.0049,0.0007,0.0022,0.0041,0.0064,0.0075,-0.004,-0.004,-0.004,-0.004,0.0013,0.0012,0.0025,0.0033,0.0043,0.0058,0.0073,0.0074,0.0041,0.0053,0.0064,0.0131,0.0156,0.0164,0.0066,0.0066,0.0067,0.0067,0.0067,0.003,0.0042,0.0056,0.0066,0.0098,0.0123,0.015,0.014,0.0164,0.0123,0.0139,0.0118,0.0178,0.0071,0.007,0.0069,0.0069,0.0069,0.0068,0.0053,0.0059,0.0066,0.0096,0.0144,0.017,0.0239,0.0234,0.0211,0.023,0.0243,0.0242,0.0156,0.0229,0.0229,0.023,0.023,0.023,0.023,0.0073,0.0081,0.0104,0.0133,0.0166,0.0226,0.0286,0.0318,0.033,0.0309,0.0308,0.0186,0.018,0.0166,0.0235,0.0234,0.0233,0.0233,0.0233,0.0096,0.0101,0.0132,0.0161,0.0234,0.0288,0.0355,0.0431,0.0456,0.047,0.0354,0.0349,0.0342,0.0333,0.0323,0.0428,0.0428,0.0428,0.0428,0.0117,0.0119,0.016,0.0207,0.0277,0.0321,0.0387,0.0431,0.0459,0.0441,0.044,0.0405,0.0397,0.0389,0.0379,0.0368,0.0486,0.0485,0.0485,0.0141,0.0147,0.0177,0.021,0.0287,0.034,0.0339,0.0294,0.035,0.0483,0.0398,0.0442,0.0386,0.0376,0.0357,0.0344,0.0323,0,0]}],[{"header":{"parameterUnit":"m.s-1","parameterCategory":2,"la1":30.2992,"la2":30.254,"lo1":-89.0895,"lo2":-89.0443,"dy":0.0025,"dx":0.0025,"nx":19,"ny":19,"refTime":"2026-04-07T03:00:00:Z","depth":"4","parameterNumber":2,"parameterNumberName":"U-component_of_CURRENTS"},"data":[0,0,0,0.0975,0.0976,0.1048,0.1049,0.113,0.1131,0,0,0,0,0,0,0,0,0,0,0,0.0953,0.0954,0.0975,0.0976,0.1048,0.1049,0.113,0.1131,0,0,0,0,0,0,0,0,0,0,0,0.0953,0.0954,0.0954,0.0977,0.1048,0.1049,0.113,0.1078,0,0,0,0,0,0,0,0,0,0,0.1009,0.0993,0.0953,0.0954,0.0977,0.1048,0.1049,0.1075,0.1081,0.1095,0,0.1112,0,0.1123,0.1136,0.1136,0,0,0,0.0975,0.0989,0.1006,0.0955,0.0978,0.1048,0.1016,0.1079,0.1085,0.1102,0.1113,0.1116,0.1124,0.1136,0.1137,0.1211,0.1211,0,0,0.0971,0.0967,0.1002,0.101,0.1005,0.1013,0.1018,0.1082,0.1094,0.1114,0.1118,0.1126,0.1137,0.1138,0.121,0.1211,0,0,0,0.0961,0.0965,0.0981,0.1007,0.1021,0.1015,0.1021,0.1091,0.1096,0.1119,0.1126,0.1137,0.1138,0.121,0.1211,0.1226,0,0,0,0.0958,0.0958,0.0979,0.0977,0.102,0.1059,0.1028,0.1092,0.1099,0.1126,0.1137,0.1139,0.121,0.121,0.1225,0.1229,0,0,0,0.0948,0.0957,0.0968,0.0977,0.1008,0.1058,0.1067,0.1093,0.1104,0.1136,0.1139,0.121,0.121,0.1224,0.1228,0.1237,0,0,0,0.0938,0.0946,0.0968,0.0983,0.1007,0.1045,0.1067,0.1107,0.1136,0.1138,0.121,0.1211,0.1224,0.1227,0.1236,0.1076,0,0,0,0.0935,0.0946,0.0953,0.0974,0.1002,0.1034,0.1077,0.1129,0.1147,0.1187,0.1189,0.1225,0.1228,0.1237,0.1108,0,0,0,0,0.0942,0.0952,0.0963,0.0992,0.1023,0.1069,0.1116,0.1142,0.1195,0.1167,0.1232,0.1232,0.1238,0.1142,0.1213,0.1213,0.1213,0.1213,0.1213,0.0936,0.0952,0.0973,0.1005,0.1037,0.1102,0.1141,0.1188,0.1205,0.1233,0.125,0.1274,0.1174,0.1257,0.1257,0.1257,0.1257,0.1257,0.1257,0.0932,0.0943,0.0984,0.1011,0.1067,0.1116,0.1185,0.1214,0.1268,0.1271,0.1276,0.1171,0.1259,0.1258,0.1258,0.1258,0.1258,0.1258,0.1257,0.0921,0.0928,0.096,0.1011,0.1071,0.1134,0.1178,0.1236,0.128,0.1298,0.1195,0.1284,0.1277,0.1303,0.1303,0.1303,0.1303,0.1303,0.1304,0.0896,0.0924,0.0957,0.101,0.1047,0.11,0.1179,0.1202,0.1255,0.1195,0.1305,0.1289,0.1288,0.128,0.1305,0.1304,0.1304,0.1304,0.1304,0.0875,0.0902,0.0933,0.0969,0.1024,0.1038,0.1122,0.1111,0.1124,0.1102,0.1136,0.1144,0.1122,0.1125,0.1111,0.1086,0.1084,0.1082,0,0.0866,0.0878,0.0918,0.0944,0.0952,0.0997,0.0953,0.0982,0.1023,0.0989,0.1156,0.1196,0.12,0.1179,0.1178,0.1162,0,0,0,0.0865,0.0875,0.089,0.0913,0.0911,0.0887,0.0932,0.0901,0.1009,0.0964,0.1032,0.1045,0.1211,0.1308,0.1294,0.1292,0.128,0,0]},{"header":{"parameterUnit":"m.s-1","parameterCategory":2,"la1":30.2992,"la2":30.254,"lo1":-89.0895,"lo2":-89.0443,"dy":0.0025,"dx":0.0025,"nx":19,"ny":19,"refTime":"2026-04-07T03:00:00:Z","depth":"4","parameterNumber":3,"parameterNumberName":"V-component_of_CURRENTS"},"data":[0,0,0,0.0297,0.0297,0.0316,0.0316,0.031,0.031,0,0,0,0,0,0,0,0,0,0,0,0.0295,0.0295,0.0297,0.0297,0.0316,0.0316,0.031,0.031,0,0,0,0,0,0,0,0,0,0,0,0.0295,0.0295,0.0295,0.0297,0.0316,0.0316,0.031,0.0305,0,0,0,0,0,0,0,0,0,0,0.0291,0.0294,0.0295,0.0295,0.0297,0.0316,0.0316,0.0305,0.0305,0.029,0,0.0294,0,0.0295,0.0308,0.0308,0,0,0,0.0303,0.0294,0.0294,0.0295,0.0297,0.0316,0.0309,0.0305,0.0305,0.029,0.0293,0.0293,0.0295,0.0308,0.0308,0.0275,0.0275,0,0,0.0302,0.0302,0.0294,0.0294,0.0301,0.0309,0.031,0.0306,0.0308,0.0293,0.0293,0.0295,0.0308,0.0307,0.0275,0.0275,0,0,0,0.0295,0.0302,0.0303,0.0294,0.0297,0.0309,0.031,0.0308,0.0307,0.0293,0.0295,0.0307,0.0307,0.0275,0.0275,0.0293,0,0,0,0.0295,0.0297,0.0302,0.0303,0.0297,0.0307,0.0313,0.0308,0.0307,0.0295,0.0307,0.0307,0.0275,0.0275,0.0293,0.0309,0,0,0,0.0294,0.0297,0.0298,0.0303,0.0307,0.0307,0.0307,0.0308,0.0307,0.0308,0.0307,0.0275,0.0275,0.0292,0.0308,0.0317,0,0,0,0.0295,0.0301,0.0298,0.0306,0.0307,0.0312,0.0307,0.0312,0.0313,0.0307,0.0275,0.0275,0.0292,0.0308,0.0317,0.0301,0,0,0,0.0303,0.0303,0.0307,0.0304,0.031,0.031,0.0314,0.0313,0.03,0.0276,0.0276,0.0293,0.0308,0.0317,0.0277,0,0,0,0,0.0309,0.0312,0.0314,0.0316,0.0317,0.0319,0.0315,0.0308,0.0294,0.0297,0.0279,0.0289,0.0294,0.0282,0.0273,0.0273,0.0273,0.0273,0.0273,0.0315,0.0316,0.0322,0.0322,0.0324,0.0322,0.0323,0.0308,0.0294,0.0286,0.0293,0.0299,0.0286,0.0277,0.0277,0.0277,0.0277,0.0277,0.0277,0.032,0.0321,0.0324,0.0331,0.0329,0.0332,0.0322,0.0316,0.0308,0.0293,0.0297,0.0289,0.0278,0.0278,0.0278,0.0278,0.0278,0.0277,0.0277,0.0321,0.0321,0.0327,0.0332,0.034,0.034,0.0353,0.0344,0.0326,0.0331,0.0316,0.0312,0.0323,0.0333,0.0333,0.0333,0.0333,0.0333,0.0333,0.0316,0.0322,0.0324,0.0333,0.0341,0.0357,0.0372,0.0374,0.0362,0.0338,0.034,0.0318,0.0316,0.0325,0.0335,0.0335,0.0334,0.0334,0.0334,0.0308,0.0313,0.0312,0.0319,0.0337,0.0353,0.0382,0.0385,0.0384,0.0369,0.0337,0.0336,0.0331,0.0329,0.0338,0.0352,0.0352,0.0351,0,0.0297,0.0301,0.0291,0.0295,0.0311,0.0342,0.0357,0.0369,0.0353,0.0336,0.0368,0.033,0.033,0.0323,0.0321,0.0331,0,0,0,0.028,0.0279,0.0263,0.027,0.0289,0.0319,0.0356,0.035,0.0357,0.0364,0.0348,0.0349,0.0361,0.034,0.033,0.0328,0.0342,0,0]}]]